Hourly Data Report for September 14, 2017

All times are specified in Local Standard Time (LST). Add 1 hour to adjust for Daylight Saving Time where and when it is observed.

KUGLUKTUK A
NUNAVUT

67°49'00.000" N
115°08'38.000" W
22.60 m
2300903
71938
YCO

Download Data

Hourly Data (September 2017)
Hourly Data Report for September 14, 2017
Temp Definition
°C
Dew Point Temp Definition
°C
Rel Hum Definition
%
Wind Dir Definition
10's deg

Wind Spd Definition
km/h
Visibility Definition
km
Stn Press Definition
kPa
Hmdx Definition


Wind Chill Definition


Weather Definition


TIME
00:00 Legend Double Dagger 3.9 0.4 78 19 19 24.1 101.44     LegendNANA
01:00 Legend Double Dagger 3.8 0.3 78 20 21 24.1 101.42     LegendNANA
02:00 Legend Double Dagger 4.6 0.9 77 19 17 24.1 101.40     Mostly Cloudy
03:00 Legend Double Dagger 4.5 1.2 79 17 13 24.1 101.37     LegendNANA
04:00 Legend Double Dagger 5.1 1.7 79 19 15 24.1 101.32     LegendNANA
05:00 Legend Double Dagger 5.0 1.8 79 21 17 24.1 101.30     Mostly Cloudy
06:00 Legend Double Dagger 5.6 2.4 79 20 15 24.1 101.25     LegendNANA
07:00 Legend Double Dagger 6.4 3.0 79 21 16 24.1 101.19     LegendNANA
08:00 Legend Double Dagger 8.2 4.0 74 20 12 24.1 101.16     Cloudy
09:00 Legend Double Dagger 9.5 4.7 72 21 20 24.1 101.12     LegendNANA
10:00 Legend Double Dagger 10.7 5.3 69 21 25 24.1 101.07     Rain Showers
11:00 Legend Double Dagger 10.7 6.1 73 21 23 24.1 101.01     Rain Showers
12:00 Legend Double Dagger 12.2 7.0 70 22 27 24.1 100.98     Rain Showers
13:00 Legend Double Dagger 12.2 7.5 73 21 28 24.1 100.94     Rain Showers
14:00 Legend Double Dagger 13.2 7.9 70 21 27 24.1 100.88     Cloudy
15:00 Legend Double Dagger 14.8 7.9 63 22 28 24.1 100.81     LegendNANA
16:00 Legend Double Dagger 15.3 7.4 59 22 32 24.1 100.78     LegendNANA
17:00 Legend Double Dagger 15.4 7.5 59 22 25 24.1 100.76     Mostly Cloudy
18:00 Legend Double Dagger 15.1 7.3 60 24 25 24.1 100.74     LegendNANA
19:00 Legend Double Dagger 13.3 7.1 66 24 21 24.1 100.74     LegendNANA
20:00 Legend Double Dagger 11.2 6.4 72 23 20 24.1 100.73     Mainly Clear
21:00 Legend Double Dagger 9.1 5.8 80 23 22 24.1 100.74     LegendNANA
22:00 Legend Double Dagger 10.7 6.4 74 25 23 24.1 100.73     LegendNANA
23:00 Legend Double Dagger 8.7 5.9 82 23 21 24.1 100.75     Mainly Clear

Notes on Data Quality.

Legend

  • E = Estimated
  • M = Missing
  • NA = Not Available
  • ‡ = Partner data that is not subject to review by the National Climate Archives
Date modified: